パンスターズ彗星

386P/PanSTARRS (2020)

English version
Home page
Updated on June 14, 2021

---------------------------------------------------------------------

・ プロフィール

・ 軌道要素

Epoch 2020 Aug. 19.0 TT = JDT 2459080.5
T 2020 Aug. 19.38354 TT                                 Rudenko
q   2.3682352            (2000.0)            P               Q
n   0.12055463     Peri.  353.25954     -0.62142087     -0.76109888
a   4.0583247      Node   134.94740     +0.73053336     -0.64862840
e   0.4164500      Incl.   15.22934     +0.28312031     +0.00311514
P   8.18
From 118 observations 2004 Feb. 14-2021 Apr. 19, mean residual 0".6.

・ 光度変化

        m1 = 14.0 + 5 logΔ + 10.0 log r

---------------------------------------------------------------------

軌道要素はM.P.E.C. 2021-J28に掲載されたものです。
光度グラフはComet for Windowsで作成したものです。

---------------------------------------------------------------------

Copyright(C) Seiichi Yoshida (comet@aerith.net). All rights reserved.